Theta_e
307 307 307 307 307 307 308 308 308 308 308 308 308 308 308 309 309 310 310 310 310 310 310 310 310 311 311 311 311 311 312 313 314 316 318 318 315 314 314 313 313 313 313 314 314 315 316 317 316 315 317 317 318 319 319 317 315 319 324 322 320 322 320 320 321 320 321 319 318 317 318 318 318 318 317 317 317 317 317 316 315 314 314 314 314 313 313 313
307 307 307 307 308 308 308 308 308 308 308 308 308 309 309 309 309 309 309 310 310 310 310 310 310 311 310 311 311 311 313 313 316 319 318 315 314 314 314 313 313 314 314 315 315 316 316 317 316 315 316 317 317 318 321 320 317 321 325 322 321 322 321 320 320 319 320 320 318 318 318 318 318 318 318 317 317 317 316 315 315 315 314 314 313 313 313 313
308 308 308 308 308 308 308 308 308 308 308 308 309 309 309 309 309 309 309 310 310 310 310 310 311 310 311 311 311 312 312 313 318 320 316 313 314 313 313 314 314 315 315 316 315 316 316 316 315 315 316 317 317 317 320 321 320 321 323 322 321 320 320 319 319 319 319 319 319 318 317 317 318 318 317 317 318 318 316 315 316 316 315 315 313 313 313 313
309 308 308 308 308 308 308 308 308 309 309 309 309 309 309 309 309 309 309 309 310 310 310 310 310 310 311 311 311 312 313 316 320 318 314 313 314 313 314 315 315 315 315 315 316 316 315 316 316 315 316 316 316 317 319 319 320 320 320 321 319 318 319 318 318 318 317 318 318 318 317 317 317 318 317 317 317 317 316 315 316 316 315 314 314 313 313 313
310 310 310 310 309 309 309 309 309 309 309 309 309 309 309 309 309 309 309 310 310 310 310 310 310 311 310 311 312 312 314 319 318 314 313 314 313 314 315 315 314 314 314 315 316 316 316 316 316 316 316 317 317 318 319 319 319 320 319 319 318 318 319 318 318 317 317 317 317 317 317 317 318 317 317 316 317 317 315 314 315 315 314 314 313 313 313 313
311 312 311 311 311 311 310 310 309 309 309 309 309 309 309 309 309 309 309 310 310 310 310 310 310 310 311 311 311 312 316 319 317 314 314 314 314 315 315 314 314 314 314 315 317 317 317 316 316 317 317 317 318 318 318 318 318 320 319 318 318 318 318 318 317 316 316 317 317 317 317 317 317 317 317 317 317 316 315 314 313 313 313 313 313 312 312 312
311 311 311 311 311 311 311 311 311 310 310 310 310 310 309 309 310 309 310 310 310 310 310 310 310 310 311 310 312 316 318 318 317 315 314 314 314 314 314 314 314 314 314 316 317 317 317 317 316 317 317 317 318 317 317 317 318 320 320 318 318 317 318 318 317 316 316 316 316 316 317 316 316 316 317 316 316 315 315 313 313 312 312 312 312 312 312 312
310 310 310 310 310 311 311 311 311 311 311 311 310 310 310 310 310 309 310 310 310 310 310 310 310 310 311 310 314 318 319 320 319 317 315 314 314 313 313 313 313 314 315 317 317 317 317 317 317 316 317 317 317 317 317 317 318 319 319 318 318 317 317 317 317 316 316 316 316 316 316 316 316 316 316 316 315 315 314 313 312 312 312 312 312 312 312 312
309 309 309 309 309 309 310 310 310 311 311 311 311 310 310 310 310 310 310 310 310 310 310 310 310 310 310 312 316 318 320 321 318 317 317 315 314 314 314 314 315 316 317 317 317 317 317 316 317 316 316 317 317 317 317 317 318 318 318 318 318 317 318 317 317 316 316 316 316 316 316 316 316 316 316 315 315 314 313 312 312 311 311 311 312 311 312 312
309 308 308 308 308 308 309 309 309 310 310 311 311 311 311 310 310 310 310 310 310 310 310 310 310 310 311 314 318 319 320 320 317 317 317 317 317 316 316 317 318 318 317 317 318 317 317 317 317 316 316 317 317 317 317 317 317 317 317 317 318 318 318 318 317 317 317 316 316 315 316 316 315 315 316 314 314 314 312 311 311 311 311 311 311 311 311 312
308 308 308 308 308 308 308 308 309 309 309 310 310 311 311 310 310 310 310 310 310 309 310 310 310 311 312 315 319 320 321 320 318 317 317 318 319 318 319 319 319 320 318 317 318 318 317 317 315 315 316 317 317 317 317 317 317 317 317 317 317 318 318 318 318 318 317 316 316 315 316 315 314 315 315 314 313 312 311 310 310 310 310 311 311 311 311 311
308 308 308 308 308 308 309 308 309 309 309 309 309 310 311 311 310 310 310 310 310 309 309 309 310 312 313 315 316 318 319 319 318 317 317 318 318 318 319 319 319 320 319 318 318 318 317 316 315 316 316 317 318 318 317 316 317 317 316 317 318 318 318 319 318 318 317 316 316 315 316 316 314 314 314 313 312 311 310 310 310 310 310 310 310 310 311 311
308 308 307 308 308 308 308 308 308 309 309 308 308 309 310 311 310 310 310 309 309 309 309 309 311 313 314 316 317 317 318 318 317 317 318 318 318 318 318 318 319 319 319 319 318 318 317 316 315 316 317 317 318 318 317 316 316 317 317 317 319 320 320 319 318 316 316 315 315 315 318 319 316 313 312 312 311 311 311 310 310 310 309 310 310 310 311 310
308 308 307 307 307 308 308 308 308 308 308 308 308 308 309 310 310 310 309 309 309 309 309 311 313 314 314 316 317 317 318 317 317 318 318 318 318 318 318 318 318 318 318 318 318 318 317 316 315 316 316 316 317 317 317 317 317 317 318 319 320 321 320 318 317 316 315 315 314 315 319 320 315 312 311 311 311 310 311 311 310 310 310 310 310 310 310 310
307 307 307 307 307 307 308 308 308 308 308 308 307 307 308 308 309 309 309 308 309 310 311 312 314 315 317 318 317 317 317 317 317 317 318 318 318 318 318 318 317 317 317 317 317 317 317 315 315 316 316 316 317 317 318 319 318 318 319 321 322 321 320 318 317 316 316 315 314 315 318 319 315 312 311 311 310 311 312 312 311 310 310 310 310 309 309 309
308 307 307 307 307 307 307 308 308 308 308 308 307 307 307 307 307 307 308 308 309 311 312 315 315 316 318 318 317 318 317 317 317 317 318 318 317 318 318 317 317 317 317 316 316 316 315 315 316 317 317 317 317 318 320 321 321 321 321 322 323 323 321 318 317 316 316 315 314 316 318 319 316 313 311 310 310 311 312 313 312 311 310 309 309 309 309 309
308 307 307 307 307 307 307 307 307 308 308 307 307 306 306 307 307 307 308 309 311 313 314 316 317 316 317 317 317 317 317 317 317 317 318 317 317 317 317 317 316 316 316 316 316 315 315 316 317 318 317 317 318 320 322 323 323 323 322 322 323 323 322 319 318 317 317 316 315 315 316 317 317 313 311 311 310 311 312 313 312 311 310 309 309 309 308 309
308 308 307 307 307 307 307 307 307 307 307 307 306 306 306 306 307 308 310 311 313 314 314 316 317 316 316 316 317 317 317 317 317 317 318 317 317 316 316 316 316 316 316 316 316 316 317 317 317 318 319 319 318 320 323 324 324 323 323 323 323 323 322 321 320 317 317 317 316 317 316 317 317 314 311 311 310 311 312 312 313 311 310 310 309 309 308 309
307 307 307 307 307 307 307 307 307 307 307 307 306 306 306 308 309 310 311 313 314 315 315 316 316 316 318 318 317 318 318 317 317 317 317 317 316 316 316 316 316 316 317 317 317 317 317 318 319 321 321 320 319 320 322 323 322 322 323 323 322 322 321 321 319 317 316 317 317 319 318 318 319 316 312 311 311 311 311 312 313 312 311 310 309 309 308 309
307 307 307 307 307 307 307 307 307 307 307 307 306 307 309 312 315 315 314 313 313 312 315 318 316 315 318 319 318 318 318 317 317 317 317 317 316 316 316 316 317 317 317 320 320 317 317 320 323 322 321 320 320 320 320 321 321 321 322 322 322 321 321 321 319 316 316 318 319 320 320 320 321 319 314 311 311 311 312 312 313 312 311 310 309 309 308 308
308 307 307 307 307 307 307 307 308 308 307 307 307 309 315 318 318 318 317 316 313 310 311 316 318 317 318 318 318 318 317 317 317 318 317 316 316 316 317 317 317 318 318 320 319 317 318 322 322 321 320 320 321 321 320 320 320 320 321 322 322 322 321 321 319 316 316 319 320 320 321 320 320 321 316 311 312 311 312 313 313 312 311 310 309 309 308 308
309 308 307 307 307 307 307 308 308 308 307 308 307 309 317 320 317 317 318 317 317 316 314 314 316 318 319 319 318 318 318 317 317 317 317 316 316 317 317 317 318 319 319 319 320 320 321 321 320 319 320 320 321 321 321 321 321 322 321 322 322 322 322 321 318 316 316 318 320 319 320 319 319 321 317 312 311 312 312 312 313 312 311 310 309 309 308 308
311 310 308 308 308 308 308 308 309 309 308 308 308 309 314 318 318 316 316 317 318 317 317 316 316 317 318 318 318 317 318 318 318 318 317 316 316 317 317 317 317 319 319 319 320 322 322 321 319 319 319 320 321 320 320 321 321 322 321 322 322 322 323 322 318 316 316 317 319 319 319 318 318 320 319 314 312 312 313 313 313 312 311 310 310 309 309 308
314 312 310 308 308 309 309 310 311 311 309 309 308 308 312 316 318 316 317 318 318 317 317 317 316 317 318 318 317 317 317 318 319 319 318 317 317 317 317 317 318 319 319 319 319 321 322 320 319 320 320 320 321 320 321 321 320 322 323 322 322 322 323 323 321 318 317 317 318 318 320 321 319 320 320 317 314 313 312 312 312 312 311 310 309 309 308 308
316 315 312 309 309 309 310 313 313 311 309 310 308 307 311 315 317 317 317 318 318 318 319 318 319 319 318 317 317 317 317 317 318 319 318 317 317 318 318 318 318 318 319 320 319 320 320 319 320 322 321 321 322 321 323 323 321 322 324 322 321 322 322 324 324 322 322 323 319 318 324 328 324 322 321 318 315 314 311 310 310 311 310 309 309 308 308 307
318 317 314 310 309 310 313 315 314 311 310 310 308 308 312 316 318 316 316 317 317 319 321 321 320 319 318 319 318 317 317 317 318 319 319 318 318 318 318 318 318 318 319 319 320 320 319 318 320 323 323 323 324 322 323 324 321 321 326 326 322 321 323 324 324 324 326 326 321 319 326 327 324 322 322 318 315 314 312 309 309 309 309 308 308 308 307 307
319 319 315 310 310 311 314 316 314 311 311 309 308 310 314 317 316 315 317 318 317 319 321 320 319 319 318 318 318 317 319 319 319 319 319 318 318 318 318 318 318 318 317 319 322 322 319 318 321 323 323 325 323 321 323 322 321 324 327 327 323 321 324 324 324 325 326 324 322 321 323 324 323 322 321 318 315 315 313 311 309 309 308 308 307 307 307 306
319 319 316 311 310 311 313 315 314 312 311 310 310 311 315 317 315 316 319 318 319 322 321 318 317 317 318 318 318 317 318 319 320 319 318 317 317 318 317 317 318 318 316 320 323 322 320 320 323 324 323 324 322 322 325 322 322 325 325 324 324 323 324 323 324 325 324 324 324 323 322 325 324 322 321 319 317 316 314 312 310 308 309 308 307 307 306 306
319 319 317 312 311 311 313 315 316 314 312 311 312 312 315 316 315 318 319 317 320 323 319 318 317 317 318 318 317 318 317 317 318 317 317 317 317 316 316 317 317 318 318 318 321 324 321 317 319 322 322 322 321 323 326 326 322 322 323 323 323 323 322 322 323 324 323 323 324 324 323 325 325 324 323 320 319 319 317 315 311 308 309 308 307 307 306 305
318 319 317 313 312 313 313 315 317 316 313 313 314 314 316 317 316 319 320 319 321 322 317 317 318 318 318 318 318 318 317 315 315 315 316 316 316 315 315 316 316 318 320 320 320 321 317 314 315 319 320 318 318 318 318 323 322 319 321 323 322 321 321 321 321 321 323 323 324 323 322 324 325 326 324 321 320 319 318 318 313 309 308 308 307 306 305 305
319 319 317 314 312 313 314 315 315 315 314 314 315 315 316 319 318 318 319 318 316 319 317 316 318 318 318 319 319 318 317 315 314 315 315 315 315 315 316 317 317 319 321 322 321 318 316 317 317 317 316 315 318 318 315 316 318 319 322 323 322 322 321 320 320 320 323 324 323 323 322 322 324 326 323 322 320 319 320 319 315 310 308 307 306 306 305 305
319 320 318 316 314 313 314 314 314 314 315 315 316 316 317 320 320 320 318 313 313 319 320 318 318 318 318 320 321 319 317 316 315 315 316 315 316 315 316 319 319 320 322 321 321 321 319 319 319 317 315 315 320 322 317 315 317 320 322 323 325 325 323 323 323 322 323 323 320 320 322 323 323 323 321 322 320 318 318 316 312 309 307 307 306 306 305 304
319 319 319 317 315 314 314 314 313 314 316 316 315 317 319 320 320 320 317 313 315 321 321 319 319 318 319 321 322 319 319 318 315 316 317 316 317 316 316 318 319 321 324 321 321 323 323 321 319 319 317 316 318 320 319 318 318 319 321 323 326 326 326 327 326 325 326 323 317 317 322 325 323 322 322 321 317 313 313 312 311 310 308 307 306 305 304 304
319 319 320 318 317 316 315 315 314 314 316 317 316 319 321 319 318 318 317 315 318 321 320 320 320 319 320 321 321 320 320 320 316 316 318 318 318 318 317 317 318 320 322 322 322 323 325 326 323 320 318 317 317 318 321 320 317 317 319 321 324 326 328 329 328 328 328 323 316 316 323 327 325 324 320 315 311 309 310 312 311 310 308 307 306 305 304 303
320 320 320 318 318 317 315 315 315 315 316 317 317 320 320 317 315 316 316 315 318 321 320 320 321 321 321 322 321 319 320 321 318 317 320 319 318 319 318 317 317 319 321 323 324 323 324 328 323 318 317 316 317 318 318 320 318 318 319 321 323 324 326 327 326 324 322 322 320 319 323 323 321 321 316 309 308 309 309 310 310 309 308 306 305 304 303 303
321 321 320 319 318 317 316 315 315 316 317 317 319 320 319 316 314 315 315 315 318 321 321 321 322 322 323 322 321 319 319 320 319 319 320 319 319 320 320 319 317 318 320 322 325 325 325 327 322 317 316 314 315 318 318 320 321 320 320 321 323 323 323 325 325 321 319 323 324 321 322 320 317 319 316 311 311 310 308 309 308 307 307 306 305 304 303 303
320 319 318 318 318 318 317 316 317 317 317 317 319 319 318 315 314 314 315 315 318 321 321 322 323 323 324 323 322 320 320 320 319 319 320 319 320 320 320 320 318 318 319 320 325 328 327 326 321 318 318 314 312 316 317 317 318 321 322 321 321 323 322 322 325 324 323 325 325 323 322 321 320 320 317 314 313 311 309 309 308 306 306 305 304 304 303 303
320 319 317 318 318 319 318 317 318 317 317 318 318 318 318 317 314 314 316 316 318 321 320 320 321 323 324 324 323 320 320 321 319 319 321 320 320 321 320 321 320 318 318 319 323 326 325 326 321 316 318 315 311 316 319 316 315 317 319 318 321 325 324 322 323 325 327 326 325 325 323 322 321 321 318 316 315 313 310 308 309 307 305 305 304 304 303 303
320 319 318 319 319 319 319 318 318 317 317 318 317 317 318 318 316 315 316 317 318 320 320 319 320 322 322 323 324 321 319 321 319 318 322 321 321 321 319 320 322 319 318 319 321 324 323 326 323 315 314 315 314 317 321 320 316 314 315 317 320 322 323 323 323 323 327 326 325 326 325 323 322 320 321 319 316 314 311 309 309 307 306 305 305 304 303 303
318 318 319 320 320 319 319 318 317 316 317 318 316 316 317 317 317 317 317 318 319 320 320 321 320 321 322 322 323 321 319 321 320 318 321 321 320 321 320 320 322 320 318 318 320 322 322 324 324 316 313 316 317 317 319 320 318 315 316 319 320 319 320 322 322 321 324 325 325 325 325 325 323 320 320 318 315 314 312 310 309 307 306 306 305 304 304 303
316 318 319 320 319 319 318 318 316 316 317 318 315 315 316 317 318 318 318 319 320 320 320 321 321 320 321 322 323 322 320 320 320 320 320 320 320 322 321 319 321 321 320 320 320 321 322 323 323 319 315 316 318 317 316 318 319 318 317 318 319 319 320 322 323 321 321 322 324 324 324 324 322 319 319 318 317 314 312 310 308 307 307 306 306 305 305 304
316 319 320 320 320 319 318 317 316 316 317 318 316 315 316 317 317 318 318 318 319 320 319 320 321 321 322 322 322 323 322 321 321 321 321 321 321 322 321 319 320 320 319 321 320 320 322 322 322 321 319 317 316 316 315 316 318 318 317 318 319 319 319 322 324 323 322 321 321 323 324 322 318 318 319 318 316 314 311 310 308 307 307 307 306 306 305 305
314 317 318 319 319 319 318 317 317 316 317 317 316 315 316 316 316 317 318 318 318 318 319 320 320 321 322 322 323 323 322 322 322 322 322 322 321 321 320 319 319 319 319 321 321 319 320 322 322 322 321 318 316 315 315 314 315 318 319 319 319 319 318 320 322 322 322 322 321 322 323 321 317 315 313 311 310 312 312 311 309 308 307 307 306 306 305 305
313 315 317 318 319 319 318 318 317 315 314 316 316 315 315 316 316 317 317 318 318 318 318 319 319 320 320 321 323 324 323 323 323 322 322 323 322 321 320 319 319 319 319 320 320 319 320 322 323 324 324 322 319 317 316 315 315 317 318 318 318 318 319 319 319 319 320 322 322 322 322 322 319 314 311 309 309 311 311 310 310 308 307 306 306 306 305 305
313 315 316 317 318 319 318 319 317 314 312 313 315 315 315 316 316 316 316 317 317 318 318 318 319 319 320 321 321 321 323 323 323 323 323 323 323 321 319 319 319 318 319 319 317 318 321 322 322 323 324 325 324 322 321 318 315 315 316 317 317 318 319 320 319 320 320 321 322 321 322 322 318 313 312 312 311 311 310 309 310 309 308 307 306 306 306 305
313 314 315 315 316 317 318 318 317 315 313 313 314 314 315 316 316 316 316 316 317 318 318 318 318 319 320 321 321 320 322 322 323 324 322 323 325 321 318 319 319 317 318 318 316 318 323 322 320 321 323 323 323 324 323 319 316 316 317 316 316 317 318 319 319 320 320 321 322 321 320 322 320 316 315 314 313 312 310 308 309 309 308 307 307 306 306 305
313 314 315 315 316 316 317 317 317 316 315 314 313 314 314 315 316 317 317 317 317 317 318 318 318 319 319 320 321 321 321 321 322 323 322 323 325 320 315 316 317 316 317 316 315 319 323 322 319 321 322 321 322 322 322 320 318 318 318 316 316 316 317 318 319 319 320 321 321 321 320 321 320 318 317 316 314 312 309 307 308 309 308 307 307 306 306 305
313 313 314 315 316 316 315 315 317 317 316 314 314 315 315 315 315 317 318 318 318 318 319 319 319 319 319 319 320 321 321 321 322 322 322 323 324 319 315 316 315 313 314 316 315 317 321 321 320 320 320 320 321 321 322 321 319 319 318 317 316 316 316 317 318 318 320 321 320 321 322 322 320 318 318 316 313 311 309 308 308 309 309 308 307 306 306 305
313 313 313 314 316 315 314 314 316 316 316 315 315 315 316 316 316 316 317 318 318 318 319 320 320 319 319 319 319 320 320 321 322 321 321 322 323 320 318 319 315 310 312 316 316 315 318 320 319 320 320 320 320 320 321 321 320 320 320 319 317 316 316 316 317 316 317 319 319 319 322 321 319 319 319 315 312 310 309 309 308 308 308 307 306 306 305 305
312 312 312 313 314 314 314 314 315 316 316 315 315 316 316 316 317 316 317 318 318 318 319 320 320 319 319 319 320 321 320 320 321 321 320 321 321 319 319 320 318 313 311 315 315 312 315 319 319 319 319 320 319 319 320 320 321 320 321 320 319 318 316 315 316 316 316 317 317 317 319 318 317 318 318 314 311 310 309 308 307 307 308 307 306 306 305 305
311 312 312 312 313 313 313 314 315 315 315 314 314 315 315 315 316 315 316 317 317 318 318 319 319 319 319 319 320 321 320 319 320 319 319 320 319 318 318 318 319 316 312 313 314 313 314 318 319 318 319 319 319 319 319 319 319 319 319 319 319 319 318 316 315 315 315 316 316 316 317 317 316 317 316 312 310 309 308 307 307 307 307 306 306 306 305 306
309 311 312 312 313 312 312 313 314 314 314 313 313 313 313 314 314 315 316 316 316 316 317 318 319 319 319 320 319 320 319 319 320 319 317 317 316 316 316 315 315 317 314 312 313 313 314 316 316 316 318 319 318 318 318 317 318 319 319 319 318 317 318 317 316 316 315 315 316 317 317 316 317 319 318 315 313 311 308 307 307 306 306 306 306 307 307 307
Wind_Speed
10 9 9 8 8 8 7 7 7 6 6 6 6 6 7 7 7 6 6 5 4 3 2 2 2 2 3 4 4 4 4 5 6 5 3 4 6 4 2 3 4 4 4 3 4 6 7 6 5 5 4 3 3 3 4 5 4 2 1 1 3 1 2 1 2 4 4 6 6 7 5 2 5 5 2 1 2 4 6 6 4 3 1 1 2 2 2 0
9 8 8 8 8 8 7 7 7 6 6 6 6 6 6 6 6 5 5 5 4 3 3 2 2 2 4 4 5 4 3 6 3 2 5 5 3 2 5 6 5 4 4 3 4 5 5 3 3 4 4 2 1 2 1 4 5 2 1 2 2 1 3 5 8 8 5 7 8 7 2 1 5 5 2 1 4 7 6 7 7 6 3 1 1 0 1 3
8 7 7 7 7 7 6 6 6 6 6 6 6 6 6 6 6 6 5 5 4 3 3 3 2 3 4 4 5 4 5 6 1 3 7 3 3 7 8 8 7 6 6 6 6 3 2 2 3 4 5 3 2 1 1 2 4 0 1 2 2 2 6 9 11 10 9 8 7 7 3 0 3 4 2 2 4 5 4 7 8 8 5 1 0 2 2 3
7 7 7 6 6 6 6 6 6 6 6 6 6 6 6 6 6 6 5 4 4 3 3 3 3 4 4 4 4 5 9 6 2 1 4 3 7 9 9 8 7 7 7 7 7 5 3 2 4 4 6 3 3 1 0 3 3 2 2 1 3 3 4 8 10 8 8 7 5 6 3 1 2 4 2 3 4 1 5 6 9 11 8 3 2 4 3 2
8 8 7 7 6 6 6 6 6 6 6 6 6 6 6 6 5 5 5 5 4 4 4 3 4 4 4 4 4 6 9 3 3 2 3 5 7 9 8 6 4 5 5 8 8 6 4 2 4 3 5 2 4 1 2 4 4 3 2 4 5 6 3 7 8 6 4 4 4 3 1 1 2 3 4 5 3 1 4 5 9 10 7 5 5 6 4 3
9 9 8 8 7 7 6 6 6 6 6 6 6 6 6 6 6 5 5 5 5 4 4 4 4 4 4 4 4 6 6 1 1 1 2 3 5 7 5 3 0 3 6 9 8 7 5 3 4 4 5 2 2 2 3 3 4 2 2 5 6 4 3 5 5 4 3 3 2 1 2 2 2 4 6 5 3 4 7 7 6 5 4 5 7 8 5 4
10 9 8 8 7 7 7 7 7 7 7 7 7 7 7 7 6 6 6 5 5 5 4 4 4 4 4 4 4 5 4 1 2 1 2 3 4 5 4 4 4 6 7 7 5 6 5 4 5 4 5 3 1 3 3 2 3 2 1 5 5 3 3 4 2 1 1 0 1 3 3 4 4 5 4 4 5 7 8 6 5 4 4 7 8 8 6 4
10 9 8 8 7 7 7 7 8 8 8 8 8 8 8 7 7 6 6 6 5 5 4 4 4 4 4 3 3 5 4 3 3 2 4 5 6 6 6 6 7 8 7 4 2 3 3 4 4 4 4 2 2 1 3 3 4 2 1 3 3 1 1 3 3 3 3 3 4 5 5 8 8 6 4 6 9 10 9 8 8 6 6 8 9 7 5 4
10 10 9 8 8 7 7 7 8 8 9 9 10 9 9 8 7 7 7 6 6 5 5 5 5 4 4 3 3 5 2 3 2 3 4 6 8 8 9 10 9 8 5 4 1 2 3 3 3 3 3 3 3 1 3 2 1 3 4 2 1 2 4 5 6 7 7 6 6 5 7 11 11 8 3 7 12 11 10 9 8 7 8 9 8 6 4 4
12 11 10 9 9 8 8 8 8 8 9 10 10 10 10 9 8 8 7 7 6 6 5 5 5 4 4 2 2 4 2 2 2 3 4 4 7 8 9 9 9 6 2 3 2 1 3 3 1 2 3 3 3 1 2 1 1 3 4 4 6 8 8 7 8 9 8 8 9 7 7 8 8 7 3 8 13 11 9 9 8 8 9 9 8 5 4 4
14 13 12 11 10 10 9 8 8 8 9 10 10 10 10 10 9 9 8 8 7 6 5 6 5 5 4 1 3 4 3 4 4 4 5 4 5 6 6 5 5 4 2 2 3 2 4 3 3 2 2 2 1 1 1 1 1 3 4 6 10 13 11 10 10 9 7 5 10 10 7 4 7 4 5 12 14 11 10 9 9 9 8 8 6 5 5 6
16 15 14 13 12 11 10 10 9 9 9 10 11 11 10 10 10 10 9 8 8 7 6 6 5 5 5 5 8 8 6 7 7 8 9 7 7 5 4 3 2 3 3 2 3 3 4 3 3 2 2 2 2 1 2 1 0 3 3 4 7 8 9 13 13 10 8 3 7 8 4 5 7 4 7 14 13 11 10 10 10 9 8 7 5 6 7 8
18 17 16 15 13 12 12 11 10 10 9 10 11 11 11 11 11 10 10 9 8 8 7 6 5 6 5 6 8 9 9 11 11 11 11 10 9 7 6 5 3 3 3 4 4 3 3 3 4 2 4 4 3 1 1 0 1 3 4 3 4 5 5 11 12 9 7 4 7 7 2 5 5 7 11 12 13 14 12 11 11 9 8 7 7 9 10 9
21 20 18 17 15 14 13 12 11 11 10 10 11 12 12 12 11 11 10 9 9 8 7 6 5 6 6 6 8 9 10 12 12 12 11 11 11 9 8 7 6 5 5 5 4 3 4 4 4 4 4 4 1 1 3 2 4 3 3 2 2 3 3 4 9 10 6 4 8 7 2 4 2 9 12 12 14 15 13 11 11 10 9 9 10 10 10 9
23 21 20 19 17 15 14 13 13 12 11 11 11 12 12 12 12 11 10 10 9 8 7 6 5 5 5 7 8 10 12 13 16 15 13 12 11 9 9 9 8 8 7 7 6 5 4 4 5 3 2 3 1 1 3 3 4 2 2 2 2 3 2 2 8 10 5 3 10 7 2 3 3 8 12 12 15 14 12 13 12 11 11 11 10 8 8 9
23 22 21 20 18 17 16 14 13 13 12 12 11 11 12 12 11 11 11 9 8 7 6 4 5 4 4 7 9 9 11 13 14 13 12 12 10 10 10 8 6 7 6 6 5 5 5 5 4 2 3 3 2 2 2 3 3 3 4 3 3 4 4 2 4 8 4 5 8 7 3 2 3 10 13 14 17 15 12 14 14 13 12 12 10 9 10 9
23 23 22 21 19 18 17 15 14 14 13 12 11 11 11 11 11 11 10 9 8 7 6 4 3 4 6 8 9 10 14 15 13 11 10 11 11 11 9 5 4 5 4 4 4 5 6 5 3 2 3 3 3 3 1 3 4 3 4 3 5 5 5 3 1 5 6 5 6 7 6 6 3 11 15 17 19 18 16 15 16 16 14 13 12 12 12 10
22 23 22 21 20 19 18 16 15 15 14 12 11 11 11 11 10 10 10 9 8 5 6 7 4 2 8 12 12 11 13 12 11 11 10 9 10 9 6 3 3 4 5 5 5 7 6 5 3 1 2 3 3 4 3 4 4 3 2 2 4 4 5 4 1 4 8 4 5 6 7 9 5 10 16 19 20 20 19 18 17 17 16 15 15 14 13 11
21 22 21 21 21 20 18 17 16 16 14 12 11 10 10 9 8 9 10 10 9 6 3 9 13 5 1 9 14 13 11 8 8 10 11 10 9 9 8 5 6 8 7 4 5 9 7 4 3 1 3 5 5 6 6 6 5 5 3 1 3 3 4 3 2 5 6 3 5 7 6 8 7 8 13 18 21 21 20 18 18 18 18 17 16 16 15 14
20 21 21 21 20 20 19 18 17 16 15 13 12 10 7 6 4 6 10 15 18 15 8 7 14 12 3 3 10 12 9 7 7 9 11 10 9 9 9 7 8 7 5 4 5 7 7 4 3 5 6 7 7 9 9 8 8 7 3 3 5 3 5 5 1 4 3 2 5 6 6 9 8 6 12 19 20 18 18 18 19 20 20 20 18 17 17 16
18 19 20 19 19 20 19 19 17 17 15 13 13 11 6 5 4 2 7 14 19 23 20 12 10 13 10 6 8 10 8 8 9 10 9 10 11 9 9 9 7 4 7 7 4 3 4 5 6 8 8 7 7 8 9 9 8 6 3 4 5 3 6 5 2 4 3 1 4 6 7 10 9 7 10 18 15 15 21 21 21 23 21 21 20 18 18 18
17 18 18 18 19 19 20 19 17 17 16 15 16 15 10 8 8 5 3 7 13 17 22 22 18 16 15 12 10 10 8 8 9 11 11 14 14 10 10 10 5 3 7 7 4 3 4 6 9 11 9 8 8 6 6 7 6 5 3 3 4 4 5 3 2 3 3 1 3 5 7 8 9 8 7 17 17 19 28 28 25 26 24 22 21 20 20 20
18 17 16 17 18 19 19 18 17 17 17 17 17 18 14 9 9 8 4 6 10 14 19 23 25 23 18 16 15 14 13 9 9 14 16 17 17 13 12 10 6 5 6 7 5 4 5 5 10 14 11 8 7 3 2 3 2 3 3 3 4 4 4 3 1 2 2 2 4 5 7 8 8 9 8 18 23 19 22 24 21 22 23 23 22 22 23 23
18 17 17 16 16 19 19 16 15 17 17 18 18 20 17 9 7 6 5 5 8 13 20 22 24 26 24 21 20 20 18 15 12 16 20 21 18 14 11 10 8 6 6 9 9 8 7 4 6 11 10 6 5 4 3 3 3 4 6 5 5 5 6 6 2 3 3 3 5 4 6 8 8 11 11 12 14 11 12 16 15 16 19 20 20 21 22 23
19 18 17 15 17 19 16 14 17 18 17 17 18 20 18 11 6 2 2 5 6 7 13 18 19 23 26 24 22 19 16 17 17 15 20 25 20 11 8 11 9 5 8 11 9 9 10 5 5 6 6 6 6 5 6 6 3 5 7 9 9 7 7 6 3 2 2 4 3 2 3 5 4 8 8 4 6 6 10 13 14 16 17 18 20 21 21 21
19 18 16 16 18 18 16 16 20 18 16 17 17 17 17 12 7 3 1 2 6 4 6 12 14 15 20 22 21 17 8 11 17 17 18 23 23 14 7 9 8 6 6 8 6 4 3 4 6 6 6 6 6 5 6 7 4 4 4 5 9 8 5 5 5 2 2 3 1 2 2 5 5 6 6 4 6 8 8 10 14 18 19 20 22 23 23 21
19 18 16 17 20 22 21 19 19 18 17 16 15 16 16 14 9 5 3 3 6 6 9 10 11 11 14 19 26 18 2 6 14 16 21 23 23 18 9 7 7 5 3 2 4 2 3 5 4 5 6 6 6 5 5 8 5 3 3 3 2 4 4 3 3 3 3 3 2 3 3 5 8 8 7 6 7 8 9 10 12 19 24 24 24 25 25 24
20 18 17 18 22 26 24 17 15 18 18 14 13 16 17 16 11 7 3 4 3 7 8 7 10 12 12 18 29 17 6 12 11 10 24 26 22 16 9 8 6 5 5 4 4 1 3 6 6 7 7 5 5 3 5 9 5 2 1 3 4 3 1 1 2 4 3 4 3 4 4 4 7 5 6 8 8 10 12 12 12 19 25 26 27 26 26 26
23 20 18 20 23 26 24 16 13 15 16 12 12 16 19 18 11 5 1 3 3 4 4 8 10 11 15 18 23 15 9 7 2 7 21 22 19 11 4 9 7 5 9 11 8 1 2 3 3 6 6 4 3 3 1 6 5 3 3 5 5 3 3 1 1 1 2 4 6 5 6 4 7 4 5 6 7 10 12 11 13 20 25 26 27 28 28 28
27 23 21 22 26 28 25 21 16 13 13 13 14 20 24 18 8 3 4 3 2 2 6 9 9 13 18 14 11 11 7 3 4 11 12 11 14 7 1 6 5 3 4 7 7 2 3 1 1 1 2 2 5 5 6 3 6 7 5 5 4 2 2 1 1 1 1 6 6 9 10 6 6 3 6 6 6 9 9 7 8 16 23 25 26 28 29 29
30 26 24 27 31 31 29 28 23 16 16 16 19 27 24 10 2 5 7 1 3 2 7 5 6 13 17 13 8 10 7 4 8 12 7 5 8 5 2 4 2 1 2 4 4 1 3 2 1 1 3 6 6 4 6 5 4 6 4 4 3 1 3 2 1 2 2 7 4 9 13 10 7 5 3 4 4 4 6 6 9 12 20 25 26 28 29 29
32 30 27 30 33 32 33 32 25 21 20 19 25 30 19 4 2 6 5 2 1 4 7 6 7 10 13 11 9 10 8 6 9 9 5 5 6 5 6 6 5 3 2 4 3 1 3 4 4 3 4 7 6 3 3 5 2 3 4 5 3 0 1 1 3 3 5 7 3 3 8 9 9 7 6 7 2 2 2 7 15 17 22 26 27 28 29 29
33 32 31 32 35 35 35 31 26 26 22 21 28 23 9 3 7 10 10 5 1 1 5 8 9 10 12 10 6 8 7 4 9 9 5 6 5 6 8 7 7 5 3 5 5 2 2 4 6 4 3 10 10 5 3 1 2 6 5 6 5 3 2 3 4 3 5 5 3 2 3 3 5 4 10 13 4 4 4 7 20 25 27 29 29 30 30 30
37 35 36 36 35 35 34 31 31 30 25 25 25 14 5 7 10 12 16 13 3 2 3 7 10 11 11 7 5 9 5 2 8 9 5 7 5 6 7 9 12 7 1 3 4 5 4 4 7 7 4 12 14 10 7 5 5 8 6 5 5 5 4 4 4 4 3 2 2 2 1 3 2 1 5 4 3 6 5 7 18 23 26 28 28 29 30 31
38 37 39 39 37 36 34 34 34 32 31 28 17 8 9 11 11 13 15 12 5 2 3 7 9 9 8 4 4 7 3 1 8 7 5 8 6 7 9 10 14 10 4 4 2 5 6 5 6 8 6 14 14 11 8 8 4 5 4 5 5 4 4 3 2 2 1 2 2 2 3 4 3 1 2 4 6 5 4 8 17 20 23 27 27 29 30 32
42 42 43 44 44 40 37 37 35 35 36 27 11 8 12 11 11 11 9 9 8 5 7 7 6 6 6 4 4 5 1 2 6 4 4 6 5 7 9 7 13 13 9 8 2 3 6 3 2 4 4 8 6 7 9 7 3 3 4 5 4 2 3 3 2 2 3 3 4 5 5 4 2 3 4 6 3 4 2 5 13 19 24 27 27 29 31 32
40 42 43 46 48 42 40 40 37 39 40 25 10 10 10 12 14 9 6 11 12 11 9 6 5 7 7 4 5 7 3 3 6 5 3 3 3 8 10 7 14 17 14 9 2 1 4 1 2 1 2 2 2 1 4 1 3 4 4 5 2 4 2 1 1 2 1 6 4 5 7 4 3 4 3 6 4 4 5 6 9 16 21 24 26 29 31 33
34 36 39 45 46 44 44 42 40 44 36 16 10 13 10 13 18 13 11 12 11 12 10 9 7 8 8 6 6 10 8 5 7 6 4 4 4 8 12 8 12 20 21 14 4 2 2 1 3 1 2 1 2 2 2 3 2 4 2 2 3 1 1 3 2 3 4 6 5 4 8 7 7 6 4 7 9 9 8 8 9 13 20 23 25 28 30 32
30 30 32 40 45 45 44 44 47 44 25 8 8 12 10 14 18 17 16 14 10 10 10 10 8 6 8 9 6 10 11 9 9 7 5 6 4 8 14 11 10 17 22 18 7 2 2 2 3 3 2 1 1 1 4 3 1 2 3 3 1 2 3 4 3 2 3 4 6 5 5 5 6 8 10 12 14 12 11 10 11 15 22 26 27 30 33 34
25 19 20 35 41 44 47 49 47 33 14 7 10 9 8 10 13 17 18 13 8 8 8 9 10 8 8 10 7 9 10 9 10 8 6 7 5 6 12 12 8 11 19 18 9 2 2 2 3 2 3 2 2 4 9 10 8 4 1 3 3 2 1 0 2 2 2 3 4 6 7 4 3 6 11 15 14 13 14 14 13 17 24 28 30 33 36 37
22 11 13 27 30 38 50 43 29 17 7 8 11 11 10 6 7 16 21 15 7 5 7 6 8 10 9 10 9 8 8 8 9 8 5 8 8 4 10 16 12 11 12 10 7 4 3 3 4 2 1 4 5 7 9 9 8 8 7 8 8 6 3 1 5 4 3 4 4 4 9 7 2 0 5 11 11 11 16 15 13 19 27 29 32 35 37 39
19 8 9 17 19 34 45 25 10 10 8 10 13 10 9 5 5 14 19 18 11 6 7 5 6 9 8 9 9 6 7 6 8 9 7 10 11 6 13 22 20 18 14 6 8 8 4 3 3 3 4 5 3 2 2 1 1 1 3 5 6 6 7 6 7 5 4 6 4 1 7 7 1 4 3 2 5 10 19 20 15 21 29 31 32 34 36 38
18 13 12 12 18 35 36 12 7 12 8 12 14 7 8 8 7 9 12 15 13 8 7 5 5 7 7 8 9 8 9 7 9 12 9 10 11 8 18 27 22 18 13 3 2 5 4 3 3 3 2 1 2 2 3 4 3 1 3 4 7 9 9 8 6 2 2 6 4 2 7 6 2 3 4 4 1 6 17 23 20 21 26 29 31 33 35 37
17 19 16 13 23 36 25 6 6 10 8 11 10 8 10 10 9 11 11 13 13 9 8 8 7 8 7 5 4 4 6 7 9 12 10 7 7 9 20 30 22 13 10 8 8 10 6 3 3 1 3 2 0 1 2 2 1 3 5 6 8 9 9 7 4 1 4 9 7 5 9 6 1 2 3 4 3 4 7 16 22 22 24 28 30 31 34 36
13 13 14 20 33 39 27 16 12 8 9 11 8 11 13 9 13 19 15 13 14 11 9 11 13 11 7 3 2 3 5 7 7 8 8 7 3 3 14 29 26 17 14 16 18 16 9 4 6 6 8 9 8 5 4 3 3 4 5 8 11 11 12 9 5 4 10 8 8 9 12 5 1 1 1 0 0 2 3 9 18 23 26 28 29 30 32 35
9 6 7 15 28 30 27 28 21 9 10 13 8 10 14 10 12 20 18 14 17 17 12 11 12 11 8 7 7 8 11 10 6 4 6 7 3 2 5 19 23 19 14 16 20 15 4 3 10 13 13 14 13 8 5 8 8 8 10 13 14 15 15 10 5 9 11 4 6 14 13 8 6 3 4 5 5 5 4 7 13 20 25 28 30 31 32 34
9 6 6 6 12 16 15 17 16 10 12 15 8 6 14 14 9 12 16 15 19 21 15 10 10 10 10 13 12 12 14 13 10 8 8 7 2 3 1 6 11 12 11 15 21 14 2 4 12 16 17 18 17 12 7 11 12 14 15 16 17 16 16 13 13 15 8 3 11 15 9 13 15 8 8 10 8 6 6 11 16 20 25 28 29 29 30 32
12 8 15 13 6 5 7 9 11 12 14 15 10 6 12 15 11 10 13 15 18 19 12 9 13 16 16 17 14 11 12 12 12 14 12 7 3 0 2 2 3 6 5 8 14 9 2 7 13 14 17 19 19 15 11 10 11 11 13 16 17 18 19 20 22 20 10 8 18 14 10 16 17 9 10 11 10 12 14 18 22 22 23 27 29 30 31 32
17 9 12 17 10 4 8 12 10 10 12 11 9 10 13 16 17 14 10 9 11 14 12 11 16 20 20 17 12 11 12 12 14 15 13 9 6 4 4 3 3 4 4 3 6 3 3 8 11 10 13 19 19 16 13 12 10 9 11 14 15 19 24 24 23 22 17 17 23 17 11 17 14 6 10 14 17 18 16 18 21 22 24 27 30 32 33 34
21 15 10 12 10 7 9 12 8 7 8 7 6 8 11 15 18 15 11 9 9 11 15 17 19 19 18 17 15 14 15 15 17 15 11 10 7 5 6 5 3 4 4 4 2 1 3 6 6 3 6 16 18 14 12 13 13 12 10 11 15 19 20 18 18 17 15 18 24 19 15 19 12 4 6 13 17 14 11 15 20 24 26 28 29 31 33 34
20 21 16 9 5 6 7 5 5 5 5 5 5 5 6 12 14 10 9 13 13 11 12 18 21 15 13 16 17 17 20 19 16 12 6 8 9 6 6 7 7 6 5 5 2 2 4 4 1 4 5 14 15 11 11 11 11 11 15 19 22 18 12 13 15 15 15 18 20 16 14 18 10 5 3 7 13 13 12 17 21 23 27 29 29 30 31 31
19 20 20 14 7 8 8 3 3 6 5 5 7 7 6 9 9 7 6 10 15 17 15 16 17 11 9 14 18 22 25 22 17 15 9 6 7 4 4 7 9 9 8 6 2 3 5 5 3 4 7 12 9 5 8 8 7 10 16 22 23 18 12 12 14 16 18 17 14 13 14 14 6 6 6 5 8 11 13 17 20 22 25 27 26 24 23 23
Wind_Direction
189 187 186 181 181 181 180 178 176 174 171 169 168 165 164 167 172 173 181 189 195 214 230 249 286 321 343 349 339 341 348 348 348 344 321 285 285 273 229 162 144 125 103 82 67 40 17 14 350 340 357 355 13 358 346 11 6 353 5 245 258 191 106 257 90 82 128 129 131 139 164 188 126 148 148 78 203 163 139 133 149 157 148 26 3 327 326 337
189 187 185 183 184 182 181 181 179 177 177 176 173 172 175 179 184 188 197 203 210 225 236 261 294 324 338 340 328 332 328 339 4 287 307 307 276 183 149 143 133 111 87 59 62 37 354 347 333 332 320 273 55 22 24 1 338 325 297 281 315 50 43 19 55 49 49 106 118 110 90 350 110 131 153 236 206 184 141 125 143 122 110 356 16 218 132 133
192 190 189 189 189 187 187 189 188 188 185 185 186 185 187 192 196 202 208 213 219 230 245 272 296 319 332 328 323 324 314 332 49 246 314 338 137 135 135 132 119 96 75 52 56 52 337 342 329 323 304 259 104 39 139 344 323 25 324 344 31 75 64 42 61 56 38 73 103 106 107 316 114 128 154 268 239 199 130 128 151 125 133 213 324 197 153 120
198 198 197 196 195 195 196 196 197 197 194 193 195 195 198 203 206 211 216 223 230 237 253 273 296 311 322 320 321 320 319 334 124 256 343 101 132 132 132 126 112 86 62 42 43 39 26 353 324 323 299 254 128 282 134 37 333 332 344 59 42 8 67 62 66 67 51 56 69 88 109 256 151 144 177 261 277 211 88 106 142 141 159 203 225 212 186 143
202 204 204 204 204 206 206 207 208 207 205 202 204 206 208 211 213 221 226 231 238 243 257 271 291 304 311 314 327 329 329 349 129 70 64 124 138 140 140 130 103 67 34 23 31 21 21 3 313 295 278 233 147 208 53 46 325 320 43 83 50 4 48 84 77 79 60 43 51 74 59 360 120 179 228 235 256 149 126 137 145 154 179 205 210 209 201 196
204 205 205 207 208 213 216 219 222 221 221 216 214 216 217 219 218 225 229 235 245 249 260 272 287 297 304 315 332 335 335 337 162 79 92 147 154 158 159 161 8 8 357 9 23 5 7 354 296 280 279 267 129 96 77 32 334 334 84 83 60 20 51 91 98 106 73 37 20 335 326 360 350 281 256 227 205 166 170 177 170 186 212 207 205 205 205 208
208 206 205 208 209 213 218 222 228 231 234 232 227 224 224 224 223 226 232 239 245 253 262 274 285 291 300 315 333 333 328 251 195 212 241 218 193 193 208 241 286 321 343 8 15 347 344 308 296 311 299 286 42 70 79 346 299 270 188 104 81 20 52 102 134 162 120 110 261 303 308 287 284 283 256 197 187 200 200 210 229 243 226 205 198 196 203 206
215 213 211 210 212 215 218 223 226 231 236 238 237 233 230 228 228 228 233 242 244 255 264 271 283 290 299 319 335 318 289 211 195 274 267 241 231 227 243 266 287 307 331 358 356 328 319 299 311 326 310 342 26 40 53 331 262 275 23 91 85 315 215 169 191 227 221 213 237 260 264 257 251 250 239 189 200 222 221 228 238 237 214 199 193 192 201 202
226 223 221 218 218 220 223 227 228 232 234 238 240 237 236 232 231 232 234 242 245 255 262 269 280 283 295 324 327 303 263 189 217 298 285 254 247 247 259 272 284 298 328 342 349 355 324 327 341 332 324 351 353 357 62 25 288 22 19 11 319 246 228 208 203 221 217 215 225 225 242 251 238 233 242 193 208 224 221 222 222 212 199 189 189 195 210 234
232 230 230 227 226 229 231 235 235 237 237 238 240 239 239 235 234 235 235 242 246 254 261 268 272 276 292 325 304 281 206 208 280 307 304 273 256 258 265 271 279 283 312 315 331 50 304 305 294 305 305 300 311 360 62 29 24 10 342 313 283 262 251 221 216 228 211 210 213 204 247 247 202 208 224 190 209 220 210 204 195 189 189 185 187 190 220 260
234 233 235 233 232 234 235 241 243 244 243 242 242 240 239 238 237 236 238 244 246 253 260 264 269 271 272 242 254 259 213 234 269 299 300 287 271 269 269 271 275 263 198 263 296 221 231 247 233 262 290 297 331 138 77 6 26 357 324 300 270 250 244 227 226 227 198 204 210 207 259 234 158 205 215 190 201 206 192 184 177 178 183 186 188 194 225 245
237 236 237 237 237 238 239 243 247 250 251 248 245 243 240 238 238 238 241 244 247 254 258 261 266 264 264 253 250 251 252 261 273 287 287 278 270 265 267 270 263 253 184 193 272 245 213 207 204 247 280 296 329 163 94 46 334 315 283 289 280 254 239 221 214 208 188 183 190 188 272 240 190 184 175 181 185 174 171 171 168 175 188 196 203 214 230 234
237 238 239 241 240 242 244 244 247 251 253 252 248 244 242 240 239 240 242 245 249 252 254 257 260 260 261 258 256 256 259 266 272 278 278 271 264 258 255 255 245 245 203 199 241 238 205 202 198 238 272 279 319 315 349 54 180 290 254 222 290 292 257 208 189 173 167 160 164 159 273 256 197 143 149 169 171 161 163 170 170 180 197 207 217 227 232 230
235 237 238 240 241 243 247 249 250 251 253 254 250 245 244 243 242 242 244 248 250 251 253 251 251 257 255 257 263 259 256 263 268 269 269 265 259 254 248 244 243 239 232 235 245 242 227 205 200 226 242 250 324 353 308 246 187 283 282 197 219 273 290 175 152 151 159 169 168 160 250 268 134 135 157 172 171 166 168 174 178 187 202 214 219 228 235 231
235 236 236 238 240 241 245 250 252 254 254 253 250 246 243 244 244 245 246 247 248 249 248 247 247 250 258 263 261 256 255 256 261 263 261 259 256 251 245 242 245 245 246 248 245 244 230 192 200 217 177 183 258 298 287 253 199 195 246 266 217 196 237 161 156 171 172 167 174 168 243 249 151 155 172 178 176 173 175 180 184 192 203 216 218 217 231 234
236 236 236 238 239 241 244 248 252 255 255 254 249 243 240 242 243 244 245 244 246 245 239 241 239 238 260 260 247 250 254 248 255 262 256 252 247 242 249 250 248 247 245 242 234 221 194 177 208 205 139 156 203 215 264 279 251 191 186 255 252 205 212 170 180 201 169 133 177 194 247 281 145 166 178 184 183 180 185 187 187 196 200 206 211 200 213 231
237 237 237 238 239 241 243 244 249 252 255 255 249 243 238 238 239 241 242 238 238 232 219 212 219 244 253 250 245 249 250 247 252 257 248 243 237 237 248 248 239 236 214 202 195 184 179 176 198 213 187 218 227 191 217 262 251 220 182 220 249 238 226 193 204 215 178 160 202 209 232 263 194 167 182 191 186 185 194 194 189 196 199 201 204 199 209 223
238 238 237 237 238 240 243 244 245 249 253 252 246 242 235 234 235 236 235 231 225 215 219 203 168 261 253 235 232 237 243 247 249 247 239 230 227 225 214 194 203 180 164 182 184 176 184 182 176 249 222 207 222 191 182 213 236 263 215 209 262 262 241 232 171 179 183 201 235 208 218 246 221 173 188 195 190 190 197 196 192 196 199 201 203 202 205 205
239 238 237 237 238 239 241 243 244 247 247 244 240 234 231 231 231 237 234 220 200 181 225 209 191 185 282 222 217 222 235 241 236 234 226 218 215 199 179 171 176 168 166 173 184 184 181 167 161 233 232 202 208 205 208 225 252 291 303 274 295 300 271 267 109 168 190 206 235 226 233 251 235 186 190 197 195 197 202 199 195 195 198 201 202 204 201 198
242 240 237 236 238 237 238 240 244 246 241 236 228 217 219 217 213 239 225 217 217 216 226 214 206 215 232 194 205 209 215 211 211 217 217 213 198 182 172 164 171 187 203 176 168 185 177 174 201 209 217 212 209 211 224 246 264 285 312 296 287 286 272 277 137 171 195 217 236 240 256 263 258 221 192 193 195 202 207 205 198 194 196 200 200 201 199 200
244 243 239 236 235 234 234 236 239 241 237 230 214 196 190 202 200 214 212 228 239 234 232 228 216 225 233 225 209 205 193 181 195 206 205 191 172 167 169 168 168 200 226 199 149 138 178 206 224 218 221 228 231 225 222 233 251 263 274 285 282 264 263 271 164 161 131 77 258 264 272 267 265 256 191 180 187 204 206 204 200 197 197 200 199 198 197 202
241 242 241 236 232 230 229 230 233 236 231 222 209 194 191 204 204 202 223 262 261 245 237 233 230 235 235 226 214 208 191 173 192 201 189 174 170 173 176 179 190 199 206 199 130 103 215 234 232 228 233 238 245 252 238 228 236 244 245 275 271 265 275 281 109 137 117 102 267 277 280 271 266 268 200 180 192 208 208 207 205 201 197 197 197 195 196 203
238 239 240 236 230 226 224 224 227 229 225 219 211 201 201 205 204 219 258 288 275 254 239 232 230 230 225 219 215 211 206 195 198 204 192 177 177 186 181 179 210 217 197 196 181 180 217 235 228 226 234 241 232 231 262 261 249 231 225 244 251 255 267 266 131 194 194 207 266 295 292 276 265 267 241 204 202 206 210 210 208 204 201 199 199 199 201 205
237 233 236 233 225 221 218 216 222 226 223 219 214 205 204 202 201 229 256 275 278 252 240 237 230 224 218 219 223 218 218 220 213 206 198 187 180 185 190 190 207 223 209 200 203 219 236 242 212 210 215 221 212 196 203 228 245 229 216 221 240 241 234 240 220 174 201 228 237 279 294 275 247 240 246 215 194 191 193 194 195 194 195 197 198 200 206 210
235 232 233 227 219 216 209 207 220 226 223 220 218 208 203 196 186 210 275 269 263 234 233 231 226 227 221 219 223 216 218 228 223 212 204 197 187 180 195 200 203 223 219 208 210 234 245 230 177 181 187 182 199 219 193 185 229 242 220 213 221 237 247 261 298 58 322 282 217 178 274 271 248 234 239 177 161 187 182 186 191 185 182 187 191 195 200 207
232 230 228 223 215 202 192 208 222 224 223 223 218 206 197 184 168 166 105 296 263 197 180 199 207 221 213 204 199 194 214 231 216 211 206 200 194 188 190 196 201 227 225 213 220 243 236 181 156 155 163 168 194 230 189 173 208 249 253 228 211 225 257 285 316 336 268 278 238 143 217 268 290 273 252 174 189 210 190 196 203 195 192 191 192 194 195 197
228 224 222 218 207 190 187 210 221 215 219 223 212 197 188 175 162 143 116 300 262 171 147 177 189 191 195 191 183 180 201 172 176 193 195 193 195 193 197 194 191 218 241 224 226 224 116 148 153 149 159 173 195 219 188 168 184 235 288 337 171 206 255 264 282 255 243 304 283 170 179 274 279 263 237 183 197 225 214 212 209 204 205 202 199 198 196 195
223 219 217 211 202 195 193 205 220 213 214 218 202 187 177 167 156 129 132 268 236 141 144 171 174 170 168 178 181 174 124 139 147 186 186 186 191 191 209 215 190 189 198 205 219 285 105 164 174 166 174 198 199 221 195 175 179 227 250 41 81 98 353 305 274 260 289 329 267 183 145 267 274 246 196 176 198 231 225 215 210 207 205 203 203 202 198 196
219 215 211 205 201 200 195 196 215 220 215 208 189 176 167 158 145 116 176 245 165 120 142 157 157 156 147 164 184 174 128 137 132 176 180 185 186 178 205 223 226 212 202 213 221 267 49 174 180 173 189 209 172 21 330 179 177 186 139 75 73 72 53 29 285 273 315 281 238 193 158 221 274 247 173 183 214 232 229 216 208 204 201 200 199 198 197 196
216 214 207 198 197 197 196 195 202 209 199 187 176 165 158 151 134 139 206 224 221 109 121 146 153 155 152 155 187 186 153 111 90 136 162 183 183 180 150 196 236 280 216 231 235 175 109 90 342 200 180 140 121 52 14 73 136 149 133 87 85 85 70 56 267 104 306 265 224 190 183 199 273 247 172 194 215 224 228 210 191 192 191 192 193 192 192 194
212 211 205 200 199 196 198 199 195 186 174 170 168 158 151 140 107 205 202 251 320 136 122 144 153 154 162 158 170 190 176 127 129 140 148 164 178 198 178 164 197 334 342 289 270 172 135 126 21 170 143 115 109 67 21 31 114 137 126 106 102 28 45 35 259 140 227 257 217 189 192 195 233 247 200 204 182 205 234 190 168 175 179 183 187 189 189 191
210 209 208 206 204 198 200 203 193 176 170 167 165 159 149 131 244 227 209 75 360 189 148 150 161 161 175 173 168 179 170 147 156 161 155 158 176 195 198 191 166 160 253 238 228 250 215 201 166 148 173 165 140 90 37 360 333 154 130 121 119 199 342 315 215 181 226 250 274 200 191 203 235 247 255 257 187 58 324 172 166 167 172 179 183 186 188 189
211 209 211 209 206 202 203 204 190 179 179 173 167 160 145 176 204 215 213 191 216 199 127 142 167 170 175 181 172 162 164 157 162 167 159 160 182 201 214 221 190 187 216 192 192 199 250 233 172 153 217 190 178 169 181 256 208 181 155 149 159 169 221 244 215 221 243 245 304 344 161 224 276 256 238 247 221 88 40 149 171 173 174 180 182 183 186 187
214 209 211 210 210 208 203 199 190 186 185 176 168 160 158 199 207 210 216 219 217 60 105 142 158 165 175 184 157 150 160 161 160 164 157 162 188 204 211 224 216 217 160 160 190 177 212 275 185 175 180 180 190 205 188 139 167 195 175 171 186 171 196 225 199 222 257 277 311 325 142 186 228 253 230 241 101 101 72 134 166 173 175 177 178 180 184 187
214 212 212 209 210 209 203 198 193 191 187 177 170 173 179 195 213 212 216 215 194 103 130 146 144 160 183 187 153 154 142 141 168 171 175 180 199 200 195 209 209 204 172 186 209 169 208 264 178 162 147 164 190 214 178 124 155 210 171 189 220 196 201 238 210 178 135 342 287 214 232 220 205 232 150 88 76 100 95 130 149 158 166 170 173 179 184 187
217 215 211 208 207 206 201 197 195 195 190 177 172 202 194 201 212 206 202 194 184 145 134 150 156 168 179 168 178 185 103 92 162 166 200 204 228 217 206 201 194 196 190 183 177 159 195 261 115 112 127 161 188 214 184 157 166 183 166 201 210 146 177 228 278 56 100 274 260 181 241 286 283 263 168 133 110 114 133 157 151 155 163 168 175 181 185 188
222 216 210 207 207 205 201 197 197 196 189 180 189 206 204 221 220 206 186 190 184 158 151 181 186 177 180 165 179 187 153 110 164 170 183 193 241 220 212 202 185 195 204 193 209 211 163 225 270 105 130 190 6 39 176 126 99 135 182 203 122 54 34 161 273 349 168 254 260 185 223 236 203 249 185 148 169 183 202 202 168 163 168 174 181 184 187 189
230 221 215 214 212 208 201 197 199 196 187 182 204 206 214 227 223 214 200 199 183 164 186 220 194 171 187 185 172 175 168 153 175 184 173 178 229 200 194 202 185 192 204 201 219 285 138 194 266 349 42 315 6 79 133 353 68 130 205 243 108 93 239 141 199 253 214 251 276 213 220 219 203 214 178 181 205 204 200 198 186 180 181 184 185 185 188 189
234 221 221 226 220 214 208 201 200 196 188 189 202 204 220 223 221 217 208 206 196 183 203 221 208 192 199 197 171 164 177 177 169 180 186 188 219 186 179 192 189 187 194 194 202 235 156 187 254 313 357 105 59 172 176 213 225 66 351 314 98 139 186 164 194 225 188 242 275 253 232 228 212 193 175 194 209 199 187 190 198 195 189 188 187 186 189 190
236 220 232 235 223 217 212 203 198 195 189 199 200 206 220 218 221 220 216 215 206 203 213 212 209 213 208 204 182 161 185 191 172 185 203 183 192 196 179 180 182 179 183 188 197 156 118 194 220 306 338 126 162 210 192 188 189 176 202 223 191 162 116 134 242 215 183 230 263 268 263 248 203 186 181 191 203 195 185 191 201 198 192 191 190 190 191 192
237 232 243 238 229 217 206 197 193 194 191 197 204 217 216 203 210 213 220 230 236 241 241 224 214 221 218 212 198 164 176 195 182 188 212 194 200 216 178 175 172 162 166 184 203 186 155 196 193 164 229 210 212 215 202 194 191 189 193 193 190 183 156 215 249 209 183 230 228 256 269 258 230 279 179 183 193 191 188 192 195 194 192 193 195 195 195 195
231 243 241 235 233 208 195 189 187 187 195 205 205 213 203 182 196 203 214 229 240 262 261 249 228 227 225 218 209 172 161 191 193 191 209 208 211 210 175 177 173 159 156 173 203 192 148 132 203 210 201 207 222 198 167 166 150 183 228 197 182 189 178 195 232 206 178 234 229 249 276 270 310 24 37 147 178 186 191 192 189 193 194 194 196 197 198 198
227 244 250 245 227 200 188 190 201 186 203 212 206 211 195 193 204 192 198 214 222 236 239 240 239 233 237 228 216 190 173 188 201 201 211 213 216 209 179 177 173 162 158 161 189 165 122 124 207 243 253 83 46 51 52 37 49 25 268 203 183 203 199 200 223 174 167 228 196 182 259 265 327 14 19 10 50 162 186 190 185 188 192 193 195 197 197 198
229 240 246 239 211 196 188 197 191 190 219 210 205 224 213 214 215 198 194 200 204 215 222 229 235 230 237 239 234 215 189 204 215 208 211 210 211 209 185 178 173 165 170 184 174 161 163 172 152 175 272 272 334 356 2 2 166 208 229 210 205 210 199 213 235 123 254 232 180 198 247 245 291 358 37 10 15 85 156 183 184 184 187 191 194 195 197 197
228 236 237 222 203 193 194 204 190 185 211 206 209 216 213 224 219 209 209 204 203 209 216 226 228 230 247 264 276 269 224 226 231 213 217 220 218 224 186 178 176 178 190 190 176 165 168 175 158 180 228 234 231 229 202 185 188 218 220 206 213 209 195 205 213 209 242 227 167 214 245 247 343 324 159 291 126 93 122 169 182 186 189 191 192 194 196 195
208 214 228 227 217 209 206 204 194 180 194 200 212 213 210 223 219 210 210 211 213 214 219 231 220 218 245 250 248 251 233 229 231 215 219 216 218 339 189 183 183 187 191 181 166 157 149 194 190 202 217 227 239 238 169 147 163 202 208 200 207 211 202 201 207 219 228 210 202 229 239 258 271 226 220 228 191 191 193 170 178 186 189 191 191 193 195 194
197 205 192 200 229 235 231 209 195 188 190 190 189 198 206 215 221 206 202 210 216 212 218 233 209 198 218 220 228 240 234 234 236 231 225 208 205 342 246 189 191 187 180 171 164 153 111 215 207 216 223 230 242 242 194 162 180 201 202 200 206 207 202 202 216 224 201 160 245 237 211 244 250 209 210 229 201 195 200 189 189 185 185 189 189 190 192 192
200 218 208 201 201 220 234 218 198 196 192 185 187 199 201 208 214 203 198 211 218 210 211 225 216 214 214 209 216 229 226 229 232 231 228 203 152 74 231 257 224 187 159 167 172 156 134 218 216 219 228 239 246 245 225 195 196 202 198 202 206 201 201 206 217 225 196 193 246 240 186 229 245 213 209 218 198 202 204 197 194 184 180 185 184 186 189 190
202 219 209 206 207 193 210 212 202 204 198 182 192 208 204 207 211 206 197 202 215 212 206 213 218 219 217 211 211 220 217 216 223 227 224 208 174 149 185 245 246 187 138 146 194 168 152 224 230 217 229 246 246 242 238 226 225 223 208 207 207 203 207 209 215 223 215 220 244 246 229 245 249 212 213 212 201 205 201 189 185 181 181 183 183 186 188 190
203 212 198 195 212 220 214 205 190 205 208 185 194 209 208 215 215 209 201 191 199 206 205 217 225 218 215 216 214 221 222 216 222 227 215 209 211 186 189 202 164 157 168 168 208 212 180 226 238 183 230 253 247 239 239 237 240 244 237 229 222 215 212 212 218 224 220 231 243 246 254 259 246 174 204 206 188 178 170 170 178 185 188 185 185 189 191 194
216 210 199 185 202 210 211 200 164 188 211 190 197 201 204 223 220 208 209 210 212 210 199 216 229 222 214 220 219 226 230 223 231 246 225 199 214 213 207 196 154 145 189 190 163 163 187 215 174 113 217 252 249 235 233 241 249 254 254 245 233 224 212 210 219 219 212 225 239 239 246 254 238 148 156 183 161 157 168 174 179 187 190 187 188 192 195 198
233 221 205 197 208 201 196 194 168 196 205 183 196 200 196 219 218 200 217 225 224 228 221 218 230 231 222 226 224 229 237 240 250 265 263 227 231 255 241 202 174 164 176 174 150 166 179 200 201 162 216 254 256 205 210 234 244 243 247 244 235 226 217 217 224 222 213 216 227 228 236 250 231 147 160 178 168 176 181 177 179 185 187 188 190 191 195 201